TimeCST,TemperatureF,Dew PointF,Humidity,Sea Level PressureIn,VisibilityMPH,Wind Direction,Wind SpeedMPH,Gust SpeedMPH,PrecipitationIn,Events,Conditions,WindDirDegrees,DateUTC
12:53 AM,-4.0,-9.0,79,30.55,10.0,North,4.6,-,N/A,,Clear,350,2014-02-11 06:53:00
1:53 AM,-2.9,-9.0,75,30.55,10.0,NNE,4.6,-,N/A,,Clear,20,2014-02-11 07:53:00
2:53 AM,-0.9,-8.0,72,30.56,10.0,North,4.6,-,N/A,,Clear,360,2014-02-11 08:53:00
3:53 AM,-2.9,-9.0,75,30.56,10.0,Calm,Calm,-,N/A,,Clear,0,2014-02-11 09:53:00
4:53 AM,-2.0,-8.0,76,30.56,10.0,SW,4.6,-,N/A,,Clear,220,2014-02-11 10:53:00
5:53 AM,-0.9,-6.0,79,30.57,10.0,South,3.5,-,N/A,,Clear,170,2014-02-11 11:53:00
6:53 AM,-6.0,-9.9,83,30.58,10.0,Calm,Calm,-,N/A,,Mostly Cloudy,0,2014-02-11 12:53:00
7:53 AM,-2.9,-8.0,79,30.58,10.0,Calm,Calm,-,N/A,,Overcast,0,2014-02-11 13:53:00
8:53 AM,1.0,-5.1,75,30.57,10.0,Calm,Calm,-,N/A,,Mostly Cloudy,0,2014-02-11 14:53:00
9:53 AM,6.1,-5.1,60,30.56,10.0,SE,5.8,-,N/A,,Mostly Cloudy,130,2014-02-11 15:53:00
10:53 AM,9.0,-4.0,56,30.54,10.0,ESE,6.9,-,N/A,,Clear,120,2014-02-11 16:53:00
11:53 AM,12.9,-2.0,51,30.51,10.0,SE,4.6,-,N/A,,Mostly Cloudy,130,2014-02-11 17:53:00
12:53 PM,12.9,-0.9,54,30.48,10.0,South,8.1,-,N/A,,Partly Cloudy,180,2014-02-11 18:53:00
1:53 PM,15.1,-0.9,49,30.44,10.0,South,5.8,-,N/A,,Overcast,170,2014-02-11 19:53:00
2:53 PM,17.1,1.0,50,30.40,10.0,South,5.8,-,N/A,,Clear,190,2014-02-11 20:53:00
3:53 PM,18.0,1.9,50,30.37,10.0,South,10.4,-,N/A,,Clear,170,2014-02-11 21:53:00
4:53 PM,18.0,3.0,52,30.33,10.0,SSE,9.2,-,N/A,,Clear,150,2014-02-11 22:53:00
5:53 PM,15.1,1.0,54,30.33,10.0,SE,8.1,-,N/A,,Clear,140,2014-02-11 23:53:00
6:53 PM,12.9,1.0,59,30.34,10.0,SE,6.9,-,N/A,,Clear,130,2014-02-12 00:53:00
7:53 PM,12.0,-0.0,59,30.33,10.0,SE,9.2,-,N/A,,Clear,130,2014-02-12 01:53:00
8:53 PM,9.0,-0.9,64,30.32,10.0,South,5.8,-,N/A,,Clear,180,2014-02-12 02:53:00
9:53 PM,10.0,-0.9,61,30.32,10.0,SSE,12.7,-,N/A,,Scattered Clouds,160,2014-02-12 03:53:00
10:53 PM,9.0,-0.9,64,30.31,10.0,South,5.8,-,N/A,,Clear,170,2014-02-12 04:53:00
11:53 PM,10.0,-0.0,64,30.27,10.0,South,10.4,-,N/A,,Clear,170,2014-02-12 05:53:00